GLOBALSTAR M069 1 31573U 07020C 26255.27029757 -.00000048 00000+0 40752-3 0 9990 2 31573 52.0063 5.6448 0001331 342.3395 38.1634 12.23474554889468 GLOBALSTAR M072 1 31574U 07020D 26255.12227345 -.00000100 00000+0 22395-3 0 9990 2 31574 51.9908 228.8003 0001313 104.6450 337.1524 11.91660093885344 GLOBALSTAR M066 1 32265U 07048C 26255.18530483 -.00000135 00000+0 34179-3 0 9995 2 32265 51.9581 168.1654 0004198 222.7021 302.7550 12.30390665870932 GLOBALSTAR M079 1 37188U 10054A 26255.25768116 -.00000109 00000+0 26699-4 0 9999 2 37188 52.0028 203.6144 0000357 98.1127 49.2003 12.62267372733547 GLOBALSTAR M074 1 37189U 10054B 26255.28793291 -.00000112 00000+0 45424-4 0 9996 2 37189 52.0001 202.7753 0000389 51.4818 112.4320 12.62263030734159 GLOBALSTAR M076 1 37190U 10054C 26255.05845880 -.00000114 00000+0 56538-4 0 9995 2 37190 52.0017 203.6848 0000171 72.2465 8.4157 12.62263557733842 GLOBALSTAR M077 1 37191U 10054D 26255.18344536 -.00000065 00000+0 24087-3 0 9990 2 37191 51.9982 318.4890 0002496 340.7271 53.2126 11.67548066731302 GLOBALSTAR M075 1 37192U 10054E 26255.15003242 -.00000113 00000+0 51887-4 0 9997 2 37192 51.9930 245.4117 0000416 73.3122 4.7175 12.62260547732926 GLOBALSTAR M073 1 37193U 10054F 26255.25147468 -.00000088 00000+0 85904-4 0 9996 2 37193 52.0052 159.2690 0000464 85.9828 91.9481 12.62267872734925 GLOBALSTAR M083 1 37739U 11033A 26255.34235840 -.00000073 00000+0 16911-3 0 9997 2 37739 51.9845 107.1030 0000636 101.1959 69.6724 12.62259051703957 GLOBALSTAR M088 1 37740U 11033B 26255.28161123 -.00000107 00000+0 20585-4 0 9995 2 37740 52.0240 13.9227 0000668 98.0793 277.1516 12.62270190699492 GLOBALSTAR M091 1 37741U 11033C 26255.21791006 -.00000093 00000+0 61688-4 0 9991 2 37741 52.0019 336.9576 0000669 113.0878 272.2564 12.62264683700273 GLOBALSTAR M085 1 37742U 11033D 26255.04402404 -.00000083 00000+0 11504-3 0 9994 2 37742 52.0125 288.8564 0000514 117.8018 256.8833 12.62265259700762 GLOBALSTAR M081 1 37743U 11033E 26255.15381247 -.00000081 00000+0 12518-3 0 9992 2 37743 51.9956 290.8586 0000314 121.5132 272.5790 12.62266214700924 GLOBALSTAR M089 1 37744U 11033F 26255.26773388 -.00000104 00000+0 23594-5 0 9990 2 37744 51.9912 244.6523 0000335 25.3911 347.7024 12.62263547701780 GLOBALSTAR M084 1 38040U 11080A 26255.31630240 -.00000078 00000+0 14318-3 0 9999 2 38040 51.9995 112.0301 0000505 67.4623 106.5132 12.62264137679768 GLOBALSTAR M080 1 38041U 11080B 26254.93661617 -.00000071 00000+0 18312-3 0 9990 2 38041 52.0046 114.9380 0001166 84.6679 291.0015 12.62258724679846 GLOBALSTAR M082 1 38042U 11080C 26255.22346270 -.00000103 00000+0 19651-5 0 9994 2 38042 52.0072 69.5696 0000969 101.0187 70.7748 12.62262838680588 GLOBALSTAR M092 1 38043U 11080D 26255.19550094 -.00000091 00000+0 68904-4 0 9992 2 38043 52.0049 160.0580 0000596 55.0907 108.9507 12.62265678679036 GLOBALSTAR M090 1 38044U 11080E 26255.25010390 -.00000113 00000+0 51506-4 0 9995 2 38044 52.0121 63.4719 0000900 108.9082 62.9770 12.62268219680700 GLOBALSTAR M086 1 38045U 11080F 26255.19059037 -.00000104 00000+0 19832-5 0 9997 2 38045 51.9895 63.4386 0000620 205.1348 324.2621 12.62289058680647 GLOBALSTAR M097 1 39072U 13005A 26255.26515245 -.00000104 00000+0 11838-5 0 9991 2 39072 52.0073 338.2611 0000613 119.3523 240.7405 12.62271209627906 GLOBALSTAR M093 1 39073U 13005B 26255.23861900 -.00000085 00000+0 10330-3 0 9993 2 39073 52.0126 331.7251 0000677 136.2173 223.8748 12.62267047627854 GLOBALSTAR M094 1 39074U 13005C 26255.23853834 -.00000119 00000+0 82798-4 0 9997 2 39074 51.9938 245.7553 0000333 113.7435 246.3466 12.62264794629465 GLOBALSTAR M096 1 39075U 13005D 26255.09347208 -.00000082 00000+0 12005-3 0 9997 2 39075 52.0077 295.0667 0000554 115.5610 244.5314 12.62264437628360 GLOBALSTAR M078 1 39076U 13005E 26255.30454153 -.00000137 00000+0 18757-3 0 9991 2 39076 51.9901 18.3139 0001554 99.2450 260.8592 12.62259844627012 GLOBALSTAR M095 1 39077U 13005F 26255.33109521 -.00000111 00000+0 40241-4 0 9997 2 39077 52.0104 15.9585 0001067 113.9942 246.1037 12.62264461626872 GLOBALSTAR M087 1 52888U 22064A 26255.10666652 -.00000076 00000+0 15482-3 0 9993 2 52888 51.9988 157.8325 0000713 88.8940 271.2009 12.62262876202111 GLOBALSTAR M098 1 A0325U 26185A 26254.94638459 .00000210 00000+0 77050-4 0 9994 2 A0325 51.9955 122.3662 0009802 319.9135 40.1098 14.63730854003947 GLOBALSTAR M102 1 A0326U 26185B 26255.01405954 .00000218 00000+0 78404-4 0 9998 2 A0326 51.9959 122.0715 0009613 320.6079 39.4177 14.63765269003941 GLOBALSTAR M099 1 A0327U 26185C 26255.01333985 .00000199 00000+0 74796-4 0 9991 2 A0327 51.9951 122.0619 0009511 320.3452 39.6809 14.63798596003950 GLOBALSTAR M104 1 A0328U 26185D 26254.44312421 .00000019 00000+0 50472-4 0 9996 2 A0328 51.9883 124.9635 0009154 327.5937 32.4450 14.48491082003859 GLOBALSTAR M106 1 A0329U 26185E 26254.94376182 .00000223 00000+0 79164-4 0 9992 2 A0329 51.9958 122.3540 0009107 320.0566 39.9719 14.63875281003937 GLOBALSTAR M101 1 A0330U 26185F 26251.87087375 .00000245 00000+0 83285-4 0 9999 2 A0330 51.9961 135.5663 0008837 308.9465 51.0704 14.63906749003480 GLOBALSTAR M105 1 A0331U 26185G 26255.07890438 .00000212 00000+0 77133-4 0 9997 2 A0331 51.9950 121.7529 0008799 320.0095 40.0213 14.63938712003958 GLOBALSTAR M100 1 A0332U 26185H 26255.00971103 .00000223 00000+0 79116-4 0 9995 2 A0332 51.9954 122.0436 0008549 319.2775 40.7542 14.63999211003944